Weather in Volovo

Russia / Tula Oblast     53°33′03″N   38°01′42″E
temp.,
°C
wind,
m/s
gust,
m/s
humid.,
%
clouds,
%
prec.,
mm/h
press.,
hPa
HPBL,
m
8 may, sat
sat800:00+8sse4117090 0.0 1014233
03:00+8sse61469100 0.0 1012402
06:00+7sse81691100 2.3 1010699
09:00+8sse101892100 7.0 1008850
12:00+8s91793100 3.5 1007798
15:00+10s51297100 10.8 1004818
18:00+10ssw61193100 1.8 1003704
21:00+9sw4995100 1.8 1004438
9 may, sun
sun900:00+8sw3597100 0.0 1005353
03:00+5wnw101395100 3.1 1008823
06:00+4nw91591100 2.6 1012827
09:00+7nw8107692 2.8 10141187
12:00+6nw81073100 0.1 10171260
15:00+7nw8107398 0.1 10191356
18:00+9nw59636 0.0 10211635
21:00+5nw410775 0.1 1024203
10 may, mon
mon1000:00+4nw410800 0.0 1025182
03:00+3nnw410790 0.0 1027175
06:00+4n39795 0.0 1029199
09:00+10n57595 0.0 1030726
12:00+12nne68486 0.0 10291419
15:00+14nne68485 0.0 10291453
18:00+13nne58605 0.0 10291077
21:00+8nne410765 0.0 1029189
11 may, tue
tue1100:00+7nne410815 0.0 1030176
03:00+6ne411760 0.0 1030217
06:00+6ne514750 0.0 1030347
09:00+11ne813610 0.0 1030739
12:00+15ene810524 0.0 1029908
15:00+16ene78564 0.0 1027907
18:00+15ene696711 0.0 1027787
21:00+11ne4118248 0.0 1027250
12 may, wed
wed1200:00+10ene5138122 0.0 1027320
03:00+9ne510875 0.0 1025197
06:00+9ene5128997 0.0 1025278
09:00+12ene71680100 0.0 1025603
12:00+12e71481100 0.3 1025534
15:00+16e8137590 0.3 1023917
18:00+16e7138094 0.1 1022678
21:00+14e51489100 0.2 1022416